Location: Waldport
(44.4270°N, 124.0680°W)
Time: 22:28:03
(UTC-07:00)

Amateur Radio Satellites - All Passes

Search period start: 25 March 2017 21:58
Search period end: 26 March 2017 21:58
Location: Waldport, 44.4270°N, 124.0680°W

Satellite Date Start Highest point End Downlink Frequencies (MHz)
Time Altitude Azimuth
STRAND 1 25 Mar 21:58:41 22:02:53 26° 296° (WNW) 22:07:04 437.568
AO-85 25 Mar 22:01:46 22:06:10 79° 123° (ESE) 22:10:18 145.980
ISS 25 Mar 22:14:44 22:17:59 72° 146° (SSE) 22:21:16 437.550
UWE-3 25 Mar 22:14:56 22:17:26 14° 270° (W) 22:19:57 435.000/436.395/437.385
Tancredo 1 25 Mar 22:18:36 22:21:45 86° 154° (SSE) 22:24:56 437.200
FO-29 25 Mar 22:23:36 22:26:00 12° 83° (E) 22:28:17 435.910
PRISM 25 Mar 22:25:19 22:29:03 32° 97° (E) 22:32:48 437.425
DELFI C3 25 Mar 22:44:14 22:47:48 33° 263° (W) 22:51:24 145.870
TIGRISAT 25 Mar 22:49:05 22:52:56 28° 95° (E) 22:56:41 435.000
Oscar 11 25 Mar 22:53:07 22:54:17 11° 272° (W) 22:55:25 .
UNISAT 6 25 Mar 22:58:48 23:02:58 38° 98° (E) 23:07:01 437.425
LO-87 25 Mar 22:58:59 23:02:21 39° 72° (ENE) 23:05:45 145.935 - 145.965
VELOX 1 25 Mar 23:07:59 23:09:00 11° 58° (ENE) 23:10:01 145.980
SO-50 25 Mar 23:09:57 23:13:43 25° 41° (NE) 23:17:28 436.795
BEESAT 3 25 Mar 23:14:29 23:18:15 46° 119° (ESE) 23:22:05 437.485
ESTCUBE 1 25 Mar 23:24:48 23:29:04 45° 71° (ENE) 23:33:20 437.505/2401.250
BEESAT 2 25 Mar 23:28:52 23:32:12 26° 115° (ESE) 23:35:35 435.950
RS-15 25 Mar 23:34:09 23:45:52 55° 248° (WSW) 23:57:06 29.354- 29.394
AIST 2D 25 Mar 23:42:03 23:43:49 13° 91° (E) 23:45:35 435.315
AO-85 25 Mar 23:44:21 23:47:01 16° 322° (NW) 23:49:37 145.980
ISS 25 Mar 23:51:46 23:54:42 29° 345° (NNW) 23:57:37 437.550
SPROUT 25 Mar 23:55:01 23:58:34 26° 67° (ENE) 00:02:08 437.525
Tancredo 1 25 Mar 23:55:26 23:58:11 26° 347° (NNW) 00:00:57 437.200
50 SAT 26 Mar 00:00:10 00:02:29 17° 66° (ENE) 00:04:49 437.505
PRISM 26 Mar 00:00:51 00:04:12 24° 294° (WNW) 00:07:33 437.425
FO-29 26 Mar 00:06:01 00:12:13 90° 104° (ESE) 00:17:42 435.910
POLYITAN 1 26 Mar 00:06:58 00:09:48 17° 92° (E) 00:12:36 437.675
QB50P2 26 Mar 00:11:15 00:14:28 21° 93° (E) 00:17:39 145.880/145.840
DX 1 26 Mar 00:20:46 00:24:18 25° 65° (ENE) 00:27:50 434.975-435.025
DUCHIFAT 1 26 Mar 00:24:30 00:27:48 22° 94° (E) 00:31:03 145.980
TIGRISAT 26 Mar 00:25:44 00:29:34 29° 293° (WNW) 00:33:19 435.000
LO-87 26 Mar 00:33:59 00:35:59 14° 268° (W) 00:38:00 145.935 - 145.965
UNISAT 6 26 Mar 00:36:00 00:39:26 22° 295° (WNW) 00:42:47 437.425
VELOX 1 26 Mar 00:40:19 00:44:43 89° 70° (ENE) 00:49:11 145.980
BUGSAT 1 26 Mar 00:44:51 00:46:32 12° 89° (E) 00:48:13 437.445
SO-50 26 Mar 00:50:04 00:54:25 49° 241° (WSW) 00:58:44 436.795
BEESAT 3 26 Mar 00:52:58 00:56:04 22° 318° (NW) 00:59:13 437.485
UKube-1 26 Mar 01:01:35 01:05:42 45° 71° (ENE) 01:09:50 .
ESTCUBE 1 26 Mar 01:02:56 01:06:05 19° 268° (W) 01:09:16 437.505/2401.250
BEESAT 2 26 Mar 01:06:15 01:09:52 33° 313° (NW) 01:13:32 435.950
NANOSAT C BR1 26 Mar 01:09:31 01:13:46 75° 103° (ESE) 01:17:57 145.865
EO-79 26 Mar 01:13:38 01:17:55 90° 318° (NW) 01:22:08 145.935-145.965
AIST 2D 26 Mar 01:13:58 01:17:14 38° 288° (WNW) 01:20:29 435.315
Oscar 19 26 Mar 01:24:19 01:26:13 12° 88° (E) 01:28:06 437.125/150
ISS 26 Mar 01:29:08 01:31:50 23° 5° (N) 01:34:34 437.550
SPROUT 26 Mar 01:30:31 01:34:22 31° 264° (W) 01:38:14 437.525
50 SAT 26 Mar 01:32:15 01:35:19 30° 263° (W) 01:38:25 437.505
Tancredo 1 26 Mar 01:32:22 01:34:59 23° 7° (N) 01:37:38 437.200
POLYITAN 1 26 Mar 01:41:46 01:45:49 44° 289° (WNW) 01:49:49 437.675
QB50P2 26 Mar 01:46:27 01:50:23 37° 290° (WNW) 01:54:16 145.880/145.840
FO-29 26 Mar 01:52:44 01:56:15 16° 307° (NW) 01:59:36 435.910
O/OREOS (USA 219) 26 Mar 01:52:51 01:55:06 13° 47° (NE) 01:57:21 437.305
RS-15 26 Mar 01:53:13 01:55:11 11° 270° (W) 01:57:09 29.354- 29.394
DX 1 26 Mar 01:56:22 02:00:19 34° 263° (W) 02:04:19 434.975-435.025
DUCHIFAT 1 26 Mar 01:59:43 02:03:33 34° 291° (WNW) 02:07:21 145.980
BUGSAT 1 26 Mar 02:18:10 02:22:20 62° 287° (WNW) 02:26:24 437.445
BEESAT 26 Mar 02:28:03 02:32:14 31° 67° (ENE) 02:36:27 436.000
UKube-1 26 Mar 02:39:02 02:41:57 18° 268° (W) 02:44:54 .
ITUPSAT 1 26 Mar 02:43:29 02:48:00 42° 69° (ENE) 02:52:31 437.325
NANOSAT C BR1 26 Mar 02:47:17 02:48:52 12° 300° (WNW) 02:50:27 145.865
MOZHAYETS 4 26 Mar 02:51:15 02:54:44 22° 64° (ENE) 02:58:11
EO-79 26 Mar 02:52:43 02:52:58 10° 301° (WNW) 02:53:13 145.935-145.965
AO-7 26 Mar 03:00:53 03:02:47 11° 84° (E) 03:04:41 .
Oscar 19 26 Mar 03:01:01 03:06:13 88° 286° (WNW) 03:11:24 437.125/150
ISS 26 Mar 03:05:35 03:08:49 52° 25° (NNE) 03:12:04 437.550
Tancredo 1 26 Mar 03:08:25 03:11:35 59° 27° (NNE) 03:14:45 437.200
Gurwin Techsat 1B 26 Mar 03:10:30 03:15:49 66° 102° (ESE) 03:21:05 435.225
ITAMSAT 1 26 Mar 03:10:34 03:11:43 11° 87° (E) 03:12:53 435.822/435.867
O/OREOS (USA 219) 26 Mar 03:30:34 03:35:13 90° 247° (WSW) 03:39:50 437.305
CUBESAT XI-V 26 Mar 03:43:23 03:45:31 13° 60° (ENE) 03:47:39 437.345
BEESAT 26 Mar 04:05:45 04:09:59 31° 264° (W) 04:14:14 436.000
KKS-1 26 Mar 04:12:40 04:16:38 32° 68° (ENE) 04:20:39 437.445
ITUPSAT 1 26 Mar 04:22:13 04:25:59 23° 266° (W) 04:29:46 437.325
MOZHAYETS 4 26 Mar 04:27:13 04:31:36 44° 262° (W) 04:36:00
Oscar 19 26 Mar 04:42:20 04:44:46 14° 303° (WNW) 04:47:14 437.125/150
ISS 26 Mar 04:42:23 04:45:08 25° 223° (SW) 04:47:53 437.550
Tancredo 1 26 Mar 04:45:02 04:47:29 20° 224° (SW) 04:49:55 437.200
ITAMSAT 1 26 Mar 04:46:43 04:51:57 85° 103° (ESE) 04:57:09 435.822/435.867
AO-7 26 Mar 04:49:00 04:57:13 62° 104° (ESE) 05:05:24 .
STARS 26 Mar 04:50:14 04:54:17 36° 68° (ENE) 04:58:20 437.465
Gurwin Techsat 1B 26 Mar 04:51:33 04:55:14 19° 300° (WNW) 04:58:54 435.225
AO-85 26 Mar 04:52:07 04:54:27 15° 37° (NE) 04:56:49 145.980
CUBESAT XI-V 26 Mar 05:17:40 05:22:15 78° 257° (WSW) 05:26:53 437.345
M-CUBED/EXP-1 PRIME 26 Mar 05:22:44 05:25:18 18° 57° (ENE) 05:28:00 437.505
KKS-1 26 Mar 05:49:27 05:53:12 26° 265° (W) 05:57:01 437.445
STRAND 1 26 Mar 06:01:48 06:03:12 11° 55° (NE) 06:04:36 437.568
DOVE 4 26 Mar 06:06:45 06:10:12 17° 89° (E) 06:13:36 437.250
STARS 26 Mar 06:27:07 06:30:41 24° 266° (W) 06:34:17 437.465
ITAMSAT 1 26 Mar 06:27:53 06:30:43 15° 303° (WNW) 06:33:32 435.822/435.867
AO-85 26 Mar 06:31:24 06:35:19 77° 237° (WSW) 06:39:21 145.980
CUTE-I 26 Mar 06:33:54 06:37:40 19° 91° (E) 06:41:24 437.470
AO-7 26 Mar 06:42:21 06:49:34 35° 304° (NW) 06:56:48 .
XW-2F 26 Mar 06:51:40 06:54:46 24° 95° (E) 06:57:51 145.980 - 146.000
LilacSat-2 26 Mar 06:52:10 06:55:25 27° 96° (E) 06:58:39 437.200
M-CUBED/EXP-1 PRIME 26 Mar 06:55:51 06:59:23 43° 256° (WSW) 07:03:13 437.505
XW-2D 26 Mar 07:16:56 07:20:37 53° 100° (E) 07:24:16 145.860 - 145.880
NUDT-PHONESAT 26 Mar 07:18:02 07:21:33 41° 98° (E) 07:25:02 437.300
HO-68 26 Mar 07:19:23 07:23:00 14° 87° (E) 07:26:36 435.675
XW-2B 26 Mar 07:22:50 07:26:34 61° 101° (E) 07:30:16 145.730 - 145.750
KAITUO 1B 26 Mar 07:24:43 07:28:21 51° 100° (E) 07:31:57 145.475/437.950
BEESAT 3 26 Mar 07:29:38 07:33:34 47° 50° (NE) 07:37:27 437.485
XW-2C 26 Mar 07:32:58 07:36:45 83° 103° (ESE) 07:40:29 145.795 - 145.815
STRAND 1 26 Mar 07:36:20 07:41:28 73° 73° (ENE) 07:46:37 437.568
XW-2A 26 Mar 07:38:06 07:39:07 11° 90° (E) 07:40:06 145.665 - 145.685
DOVE 4 26 Mar 07:43:02 07:48:20 68° 286° (WNW) 07:53:32 437.250
CUTE 1.7 + AOD 2 26 Mar 07:43:52 07:46:01 14° 90° (E) 07:48:10 437.475
BEESAT 2 26 Mar 07:44:30 07:48:08 30° 46° (NE) 07:51:44 435.950
NO-84 26 Mar 08:05:41 08:08:32 82° 141° (SE) 08:11:24 435.350 FM
YUBILEINY 26 Mar 08:06:25 08:14:53 57° 90° (E) 08:23:20 435.215
CUTE-I 26 Mar 08:12:50 08:18:07 60° 289° (WNW) 08:23:21 437.470
XW-2F 26 Mar 08:25:48 08:28:51 24° 292° (WNW) 08:31:53 145.980 - 146.000
LilacSat-2 26 Mar 08:26:37 08:29:35 22° 292° (WNW) 08:32:33 437.200
UWE-3 26 Mar 08:26:41 08:27:46 11° 87° (E) 08:28:51 435.000/436.395/437.385
FO-29 26 Mar 08:38:33 08:41:15 12° 50° (NE) 08:43:52 435.910
XW-2D 26 Mar 08:52:41 08:54:22 13° 297° (WNW) 08:56:02 145.860 - 145.880
NUDT-PHONESAT 26 Mar 08:53:01 08:55:09 15° 295° (WNW) 08:57:16 437.300
CUBEBUG 2 26 Mar 08:57:13 09:01:23 38° 97° (E) 09:05:23 437.445
AAUSAT CUBESAT 2 26 Mar 08:57:30 09:01:05 27° 95° (E) 09:04:38 437.432
XW-2B 26 Mar 08:59:02 09:00:16 11° 298° (WNW) 09:01:29 145.730 - 145.750
KAITUO 1B 26 Mar 09:00:17 09:01:57 13° 296° (WNW) 09:03:36 145.475/437.950
Oscar 11 26 Mar 09:00:51 09:02:29 12° 89° (E) 09:04:06 .
HO-68 26 Mar 09:04:36 09:11:49 79° 106° (ESE) 09:19:00 435.675
ZACube-1 26 Mar 09:06:42 09:09:33 17° 91° (E) 09:12:21 437.345
BEESAT 3 26 Mar 09:08:04 09:10:49 18° 248° (WSW) 09:13:34 437.485
XW-2A 26 Mar 09:08:53 09:12:08 43° 287° (WNW) 09:15:20 145.665 - 145.685
SEEDS 26 Mar 09:11:42 09:15:55 82° 103° (ESE) 09:20:07 437.485
PRISM 26 Mar 09:16:11 09:19:41 29° 68° (ENE) 09:23:13 437.425
CUTE 1.7 + AOD 2 26 Mar 09:18:04 09:22:13 56° 286° (WNW) 09:26:20 437.475
STRAND 1 26 Mar 09:18:18 09:21:10 15° 271° (W) 09:24:04 437.568
PCSat 26 Mar 09:18:50 09:22:16 17° 105° (ESE) 09:25:44 145.827
BEESAT 2 26 Mar 09:22:18 09:25:52 30° 244° (WSW) 09:29:25 435.950
DOVE 4 26 Mar 09:23:45 09:25:00 11° 304° (NW) 09:26:16 437.250
AO-73 26 Mar 09:34:36 09:38:23 31° 96° (E) 09:42:04 145.935
NO-84 26 Mar 09:44:24 09:46:24 17° 341° (NNW) 09:48:26 435.350 FM
TIGRISAT 26 Mar 09:48:47 09:52:57 33° 68° (ENE) 09:57:06 435.000
UNISAT 6 26 Mar 09:58:33 10:03:00 43° 70° (ENE) 10:07:24 437.425
UWE-3 26 Mar 10:00:27 10:04:47 72° 285° (WNW) 10:08:59 435.000/436.395/437.385
YUBILEINY 26 Mar 10:04:20 10:12:06 35° 292° (WNW) 10:19:54 435.215
FO-29 26 Mar 10:17:20 10:24:50 53° 69° (ENE) 10:31:52 435.910
DELFI C3 26 Mar 10:19:32 10:22:51 25° 95° (E) 10:26:11 145.870
AAUSAT CUBESAT 2 26 Mar 10:32:58 10:36:29 27° 292° (WNW) 10:39:58 437.432
CUBEBUG 2 26 Mar 10:34:21 10:37:45 22° 295° (WNW) 10:41:03 437.445
Oscar 11 26 Mar 10:34:47 10:39:04 67° 285° (WNW) 10:43:20 .
ZACube-1 26 Mar 10:42:02 10:46:04 43° 289° (WNW) 10:50:01 437.345
SEEDS 26 Mar 10:49:56 10:50:58 11° 300° (WNW) 10:51:59 437.485
PRISM 26 Mar 10:51:34 10:54:57 25° 265° (W) 10:58:21 437.425
HO-68 26 Mar 10:53:25 10:58:48 24° 305° (NW) 11:04:11 435.675
PCSat 26 Mar 10:59:38 11:05:02 73° 303° (WNW) 11:10:30 145.827
POLYITAN 1 26 Mar 11:01:16 11:04:06 18° 63° (ENE) 11:06:57 437.675
QB50P2 26 Mar 11:05:29 11:08:38 20° 65° (ENE) 11:11:50 145.880/145.840
AO-73 26 Mar 11:11:03 11:14:29 24° 293° (WNW) 11:17:51 145.935
DUCHIFAT 1 26 Mar 11:17:54 11:21:07 21° 65° (ENE) 11:24:20 145.980
NO-84 26 Mar 11:23:54 11:24:57 11° 3° (N) 11:26:00 435.350 FM
TIGRISAT 26 Mar 11:25:32 11:29:37 29° 265° (W) 11:33:40 435.000
UNISAT 6 26 Mar 11:36:15 11:39:51 22° 267° (W) 11:43:27 437.425
BUGSAT 1 26 Mar 11:36:29 11:38:12 12° 60° (ENE) 11:39:56 437.445
AIST 2D 26 Mar 11:49:17 11:52:50 89° 236° (SW) 11:56:23 435.315
RS-15 26 Mar 11:49:30 11:58:15 25° 99° (E) 12:07:10 29.354- 29.394
DELFI C3 26 Mar 11:54:13 11:57:36 27° 291° (WNW) 12:00:59 145.870
LO-87 26 Mar 11:57:35 12:01:02 38° 98° (E) 12:04:27 145.935 - 145.965
NANOSAT C BR1 26 Mar 12:02:38 12:06:53 67° 73° (ENE) 12:11:08 145.865
FO-29 26 Mar 12:02:55 12:09:58 36° 265° (W) 12:16:41 435.910
EO-79 26 Mar 12:07:04 12:11:21 82° 74° (ENE) 12:15:39 145.935-145.965
VELOX 1 26 Mar 12:29:56 12:32:30 15° 91° (E) 12:35:05 145.980
POLYITAN 1 26 Mar 12:35:21 12:39:31 49° 260° (W) 12:43:42 437.675
QB50P2 26 Mar 12:40:08 12:44:10 40° 262° (W) 12:48:15 145.880/145.840
Oscar 19 26 Mar 12:41:51 12:45:45 22° 62° (ENE) 12:49:39 437.125/150
PCSat 26 Mar 12:46:02 12:49:25 16° 324° (NW) 12:52:50 145.827
ESTCUBE 1 26 Mar 12:51:50 12:56:22 80° 104° (ESE) 13:00:53 437.505/2401.250
DUCHIFAT 1 26 Mar 12:52:34 12:56:33 38° 262° (W) 13:00:33 145.980
50 SAT 26 Mar 12:55:30 12:57:30 14° 92° (E) 12:59:29 437.505
Gurwin Techsat 1B 26 Mar 12:55:37 12:59:12 19° 60° (ENE) 13:02:47 435.225
NO-84 26 Mar 13:00:53 13:03:23 22° 25° (NNE) 13:06:00 435.350 FM
BUGSAT 1 26 Mar 13:08:44 13:12:57 75° 257° (WSW) 13:17:14 437.445
SPROUT 26 Mar 13:14:05 13:18:05 37° 97° (E) 13:22:03 437.525
LO-87 26 Mar 13:31:55 13:34:10 16° 295° (WNW) 13:36:24 145.935 - 145.965
NANOSAT C BR1 26 Mar 13:41:27 13:43:02 12° 271° (W) 13:44:37 145.865
DX 1 26 Mar 13:42:25 13:46:28 34° 98° (E) 13:50:29 434.975-435.025
RS-15 26 Mar 13:56:52 14:08:55 86° 122° (ESE) 14:21:22 29.354- 29.394
AO-7 26 Mar 13:59:47 14:06:03 25° 50° (NE) 14:12:18 .
VELOX 1 26 Mar 14:04:56 14:09:20 57° 287° (WNW) 14:13:42 145.980
Oscar 19 26 Mar 14:19:44 14:24:43 52° 260° (W) 14:29:44 437.125/150
UKube-1 26 Mar 14:22:30 14:26:49 66° 102° (ESE) 14:31:08 .
50 SAT 26 Mar 14:27:27 14:30:42 36° 289° (WNW) 14:33:56 437.505
ITAMSAT 1 26 Mar 14:28:31 14:32:29 22° 62° (ENE) 14:36:28 435.822/435.867
ESTCUBE 1 26 Mar 14:30:37 14:32:31 13° 301° (WNW) 14:34:26 437.505/2401.250
Gurwin Techsat 1B 26 Mar 14:33:18 14:38:36 69° 258° (WSW) 14:43:56 435.225
NO-84 26 Mar 14:37:59 14:41:07 58° 221° (SW) 14:44:31 435.350 FM
SPROUT 26 Mar 14:50:28 14:53:47 22° 295° (WNW) 14:57:04 437.525
SO-50 26 Mar 15:05:35 15:09:48 35° 117° (ESE) 15:14:00 436.795
DX 1 26 Mar 15:18:55 15:22:29 25° 294° (WNW) 15:26:02 434.975-435.025
AO-7 26 Mar 15:49:29 15:57:50 89° 253° (WSW) 16:06:13 .
UKube-1 26 Mar 16:00:03 16:02:20 14° 299° (WNW) 16:04:35 .
BEESAT 26 Mar 16:03:21 16:08:03 57° 101° (E) 16:12:43 436.000
ITAMSAT 1 26 Mar 16:06:28 16:11:35 54° 260° (W) 16:16:43 435.822/435.867
RS-15 26 Mar 16:11:44 16:23:00 40° 329° (NNW) 16:34:28 29.354- 29.394
ITUPSAT 1 26 Mar 16:19:34 16:24:21 81° 104° (ESE) 16:29:06 437.325
MOZHAYETS 4 26 Mar 16:20:19 16:24:34 37° 97° (E) 16:28:46
SO-50 26 Mar 16:46:03 16:50:16 33° 315° (NW) 16:54:26 436.795
CUBESAT XI-V 26 Mar 17:12:56 17:16:39 23° 93° (E) 17:20:21 437.345
DOVE 4 26 Mar 17:13:51 17:17:12 19° 62° (ENE) 17:20:41 437.250
XW-2F 26 Mar 17:34:50 17:37:16 16° 65° (ENE) 17:39:42 145.980 - 146.000
LilacSat-2 26 Mar 17:36:06 17:38:47 18° 66° (ENE) 17:41:28 437.200
KKS-1 26 Mar 17:37:43 17:42:07 50° 100° (E) 17:46:27 437.445
BEESAT 26 Mar 17:42:10 17:45:23 18° 299° (WNW) 17:48:36 436.000
O/OREOS (USA 219) 26 Mar 17:44:14 17:48:45 78° 111° (ESE) 17:53:20 437.305
AO-7 26 Mar 17:46:01 17:51:39 20° 270° (W) 17:57:19 .
HO-68 26 Mar 17:51:09 17:55:02 16° 49° (NE) 17:58:55 435.675
CUTE-I 26 Mar 17:56:52 18:01:46 37° 67° (ENE) 18:06:41 437.470
MOZHAYETS 4 26 Mar 17:57:51 18:01:32 24° 294° (WNW) 18:05:12
NUDT-PHONESAT 26 Mar 17:59:11 18:02:16 25° 69° (ENE) 18:05:22 437.300
ITUPSAT 1 26 Mar 17:59:11 18:01:31 14° 302° (WNW) 18:03:51 437.325
XW-2D 26 Mar 17:59:42 18:03:07 32° 70° (ENE) 18:06:32 145.860 - 145.880
PCSat 26 Mar 18:03:03 18:07:30 25° 43° (NE) 18:11:56 145.827
XW-2B 26 Mar 18:05:32 18:09:03 36° 71° (ENE) 18:12:33 145.730 - 145.750
KAITUO 1B 26 Mar 18:06:22 18:09:40 30° 70° (ENE) 18:12:58 145.475/437.950
STARS 26 Mar 18:13:37 18:17:59 53° 100° (E) 18:22:17 437.465
YUBILEINY 26 Mar 18:14:38 18:22:08 31° 66° (ENE) 18:29:35 435.215
XW-2C 26 Mar 18:15:31 18:19:12 48° 73° (ENE) 18:22:53 145.795 - 145.815
RS-15 26 Mar 18:29:49 18:40:06 29° 4° (N) 18:50:17 29.354- 29.394
M-CUBED/EXP-1 PRIME 26 Mar 18:34:11 18:35:54 12° 94° (E) 18:37:39 437.505
CUTE 1.7 + AOD 2 26 Mar 18:38:45 18:40:41 13° 62° (ENE) 18:42:37 437.475
DOVE 4 26 Mar 18:49:47 18:54:22 56° 260° (W) 18:59:19 437.250
CUBESAT XI-V 26 Mar 18:49:49 18:54:09 39° 290° (WNW) 18:58:28 437.345
XW-2F 26 Mar 19:07:33 19:11:07 39° 262° (W) 19:14:42 145.980 - 146.000
LilacSat-2 26 Mar 19:09:18 19:12:50 35° 263° (W) 19:16:23 437.200
KKS-1 26 Mar 19:15:11 19:18:17 19° 297° (WNW) 19:21:23 437.445
UWE-3 26 Mar 19:24:35 19:26:53 14° 61° (ENE) 19:29:11 435.000/436.395/437.385
O/OREOS (USA 219) 26 Mar 19:26:12 19:28:45 15° 311° (NW) 19:31:21 437.305
NUDT-PHONESAT 26 Mar 19:33:03 19:36:08 24° 265° (W) 19:39:13 437.300
HO-68 26 Mar 19:34:26 19:41:30 69° 70° (ENE) 19:48:37 435.675
XW-2D 26 Mar 19:34:37 19:37:23 19° 267° (W) 19:40:09 145.860 - 145.880
CUTE-I 26 Mar 19:37:04 19:41:50 32° 264° (W) 19:46:37 437.470
XW-2B 26 Mar 19:40:50 19:43:22 17° 268° (W) 19:45:54 145.730 - 145.750
KAITUO 1B 26 Mar 19:40:57 19:43:45 20° 267° (W) 19:46:32 145.475/437.950
XW-2A 26 Mar 19:41:13 19:44:39 73° 76° (ENE) 19:48:07 145.665 - 145.685
STRAND 1 26 Mar 19:45:56 19:49:49 21° 92° (E) 19:53:40 437.568
PCSat 26 Mar 19:45:58 19:51:21 64° 243° (WSW) 19:56:42 145.827
AAUSAT CUBESAT 2 26 Mar 19:49:24 19:52:37 23° 67° (ENE) 19:55:52 437.432
STARS 26 Mar 19:51:01 19:53:54 17° 298° (WNW) 19:56:47 437.465
XW-2C 26 Mar 19:51:53 19:53:40 13° 269° (W) 19:55:28 145.795 - 145.815
CUBEBUG 2 26 Mar 19:56:06 20:00:33 41° 71° (ENE) 20:04:59 437.445
Oscar 11 26 Mar 19:57:34 19:59:25 13° 61° (ENE) 20:01:16 .
ZACube-1 26 Mar 20:03:51 20:07:03 19° 65° (ENE) 20:10:15 437.345
SEEDS 26 Mar 20:04:33 20:08:41 67° 74° (ENE) 20:12:48 437.485
M-CUBED/EXP-1 PRIME 26 Mar 20:06:11 20:10:50 84° 290° (WNW) 20:15:31 437.505
YUBILEINY 26 Mar 20:10:59 20:19:32 64° 268° (W) 20:28:05 435.215
CUTE 1.7 + AOD 2 26 Mar 20:11:48 20:15:59 67° 259° (W) 20:20:11 437.475
AO-73 26 Mar 20:31:10 20:35:11 32° 69° (ENE) 20:39:09 145.935
RS-15 26 Mar 20:44:54 20:56:45 47° 37° (NE) 21:08:08 29.354- 29.394
AO-85 26 Mar 20:47:56 20:51:19 22° 114° (ESE) 20:54:33 145.980
UWE-3 26 Mar 20:58:04 21:02:45 76° 258° (WSW) 21:07:22 435.000/436.395/437.385
DELFI C3 26 Mar 21:07:04 21:09:49 19° 65° (ENE) 21:12:36 145.870
Tancredo 1 26 Mar 21:21:32 21:24:32 42° 142° (SE) 21:27:34 437.200
ISS 26 Mar 21:22:39 21:25:42 39° 141° (SE) 21:28:47 437.550
HO-68 26 Mar 21:24:14 21:29:48 24° 268° (W) 21:35:25 435.675
AAUSAT CUBESAT 2 26 Mar 21:24:15 21:27:56 32° 264° (W) 21:31:38 437.432
STRAND 1 26 Mar 21:24:20 21:29:17 50° 290° (WNW) 21:34:11 437.568
Oscar 11 26 Mar 21:30:40 21:34:58 73° 258° (WSW) 21:39:18 .
CUBEBUG 2 26 Mar 21:33:31 21:37:17 23° 267° (W) 21:41:04 437.445
ZACube-1 26 Mar 21:38:36 21:43:00 48° 261° (W) 21:47:22 437.345
M-CUBED/EXP-1 PRIME 26 Mar 21:42:36 21:44:34 13° 307° (NW) 21:46:32 437.505
SEEDS 26 Mar 21:43:33 21:44:48 11° 271° (W) 21:46:04 437.485
